Location: Franzen
(48.6167°N, 15.3833°E)
Time: 13:36:06
(UTC+00:00)

BREEZE M DEB (TANK) - Pass Details

Date: 22 April 2021
Orbit: 342 x 13618 km, 49.6° (Epoch: 16 May)

Event Time Altitude Azimuth Distance (km) Brightness Sun altitude
Rises 19:50:15 0° 218° (SW) 2,531 6.2 -16.3°
Reaches altitude 10° 19:51:43 10° 210° (SSW) 1,916 5.4 -16.5°
Maximum altitude 19:55:29 46° 135° (SE) 1,316 4.2 -16.9°
Drops below altitude 10° 20:06:55 10° 68° (ENE) 5,691 7.7 -18.3°
Sets 20:15:11 0° 65° (ENE) 8,723 8.7 -19.2°
